Pampa, TX

11:20 PM CDT on August 26, 2016 (GMT -0500)
Perry Lefors

Weather History for KPPA - April, 2012

Change the Weather History Date:

Monday, April 9, 2012

  Actual Average Record
Temperature  
Mean Temperature 64 °F -  
Max Temperature 78 °F 67 °F 89 °F (2011)
Min Temperature 51 °F 39 °F 21 °F (1973)
Growing Degree Days 14 (Base 50)    
Moisture  
Dew Point 49 °F    
Average Humidity 66    
Maximum Humidity 100    
Minimum Humidity 23    
Precipitation  
Precipitation 0.00 in - - ()
Sea Level Pressure  
Sea Level Pressure 30.13 in    
Wind  
Wind Speed 15 mph (South)    
Max Wind Speed 22 mph    
Max Gust Speed 28 mph    
Visibility 8 miles    
Events Thunderstorm    
Averages and records for this station are not official NWS values.
T = Trace of Precipitation, MM = Missing Value Source: NWS Daily Summary

Daily Weather History Graph

Daily Weather History Graph

Search for Another Location

Airport or City:

Trip Planner

Search our weather history database for the weather conditions in past years. The results will help you decide how hot, cold, wet, or windy it might be!

Date:

Astronomy

Apr. 09, 2012 Rise Set
Actual Time 7:18 AM CDT 8:12 PM CDT
Civil Twilight 6:52 AM CDT 8:38 PM CDT
Nautical Twilight 6:21 AM CDT 9:09 PM CDT
Astronomical Twilight 5:50 AM CDT 9:41 PM CDT
Moon No Moon Rise 9:15 AM CDT (4/9)
Length of Visible Light 13h 46m
Length of Day
12h 54m
Waning Gibbous, 88% of the Moon is Illuminated
Apr 9
Waning Gibbous
Apr 13
Last Quarter
Apr 21
New
Apr 29
First Quarter
May 5
Full

Hourly Weather History & Observations

Time (CDT) Temp. Dew Point Humidity Pressure Visibility Wind Dir Wind Speed Gust Speed Precip Events Conditions
12:15 AM 51.8 °F 50.0 °F 94% 30.21 in 10.0 mi SSE 15.0 mph - N/A   Clear
12:35 AM 53.6 °F 51.8 °F 94% 30.20 in 5.0 mi SSE 19.6 mph - N/A   Mostly Cloudy
12:55 AM 53.6 °F 51.8 °F 94% 30.21 in 4.0 mi SSE 18.4 mph 24.2 mph N/A   Overcast
1:15 AM 53.6 °F 51.8 °F 94% 30.21 in 3.0 mi SSE 20.7 mph - N/A   Overcast
1:35 AM 53.6 °F 51.8 °F 94% 30.21 in 3.0 mi SSE 19.6 mph 24.2 mph N/A   Overcast
1:55 AM 53.6 °F 51.8 °F 94% 30.21 in 3.0 mi SSE 16.1 mph 21.9 mph N/A   Overcast
2:15 AM 53.6 °F 51.8 °F 94% 30.20 in 5.0 mi SSE 21.9 mph 26.5 mph N/A   Overcast
2:35 AM 53.6 °F 51.8 °F 94% 30.21 in 4.0 mi SSE 17.3 mph 26.5 mph N/A   Overcast
2:55 AM 53.6 °F 53.6 °F 100% 30.21 in 3.0 mi SSE 16.1 mph 23.0 mph N/A   Overcast
3:15 AM 53.6 °F 53.6 °F 100% 30.20 in 4.0 mi SSE 13.8 mph - N/A   Overcast
3:35 AM 53.6 °F 53.6 °F 100% 30.19 in 4.0 mi SSE 16.1 mph 21.9 mph N/A   Overcast
3:55 AM 53.6 °F 53.6 °F 100% 30.19 in 4.0 mi South 18.4 mph - N/A   Overcast
4:35 AM 55.4 °F 53.6 °F 94% 30.19 in 5.0 mi South 16.1 mph - N/A   Overcast
4:55 AM 53.6 °F 53.6 °F 100% 30.19 in 5.0 mi South 13.8 mph 21.9 mph N/A   Overcast
5:15 AM 53.6 °F 51.8 °F 94% 30.19 in 5.0 mi South 10.4 mph - N/A   Mostly Cloudy
5:35 AM 53.6 °F 51.8 °F 94% 30.19 in 5.0 mi SSE 12.7 mph - N/A   Mostly Cloudy
5:55 AM 53.6 °F 51.8 °F 94% 30.18 in 5.0 mi SSE 12.7 mph - N/A   Overcast
6:15 AM 53.6 °F 51.8 °F 94% 30.18 in 5.0 mi South 11.5 mph - N/A   Mostly Cloudy
6:35 AM 53.6 °F 51.8 °F 94% 30.18 in 5.0 mi South 9.2 mph - N/A   Scattered Clouds
6:55 AM 53.6 °F 51.8 °F 94% 30.18 in 5.0 mi South 10.4 mph - N/A   Scattered Clouds
8:15 AM 53.6 °F 51.8 °F 94% 30.19 in 2.5 mi South 10.4 mph - N/A   Mostly Cloudy
8:35 AM 53.6 °F 53.6 °F 100% 30.19 in 5.0 mi SSW 11.5 mph - N/A   Scattered Clouds
8:55 AM 55.4 °F 53.6 °F 94% 30.19 in 5.0 mi SSW 11.5 mph - N/A   Clear
9:15 AM 57.2 °F 53.6 °F 88% 30.19 in 7.0 mi SSW 15.0 mph - N/A   Clear
9:35 AM 59.0 °F 53.6 °F 82% 30.19 in 10.0 mi SSW 16.1 mph - N/A   Clear
9:55 AM 62.6 °F 53.6 °F 72% 30.18 in 10.0 mi SSW 17.3 mph - N/A   Clear
10:15 AM 62.6 °F 53.6 °F 72% 30.19 in 10.0 mi SW 13.8 mph - N/A   Clear
10:35 AM 64.4 °F 53.6 °F 68% 30.19 in 10.0 mi SW 18.4 mph - N/A   Clear
11:15 AM 68.0 °F 53.6 °F 60% 30.18 in 10.0 mi SW 19.6 mph - N/A   Clear
11:35 AM 71.6 °F 53.6 °F 53% 30.18 in 10.0 mi SW 18.4 mph 27.6 mph N/A   Clear
11:55 AM 71.6 °F 53.6 °F 53% 30.17 in 10.0 mi SW 20.7 mph - N/A   Clear
12:15 PM 69.8 °F 53.6 °F 56% 30.16 in 10.0 mi SW 16.1 mph - N/A   Clear
12:35 PM 73.4 °F 51.8 °F 47% 30.16 in 10.0 mi SW 20.7 mph - N/A   Clear
12:55 PM 73.4 °F 50.0 °F 44% 30.15 in 10.0 mi SW 16.1 mph 23.0 mph N/A   Clear
1:15 PM 73.4 °F 51.8 °F 47% 30.14 in 10.0 mi SW 15.0 mph - N/A   Clear
1:35 PM 73.4 °F 50.0 °F 44% 30.14 in 10.0 mi SW 11.5 mph - N/A   Clear
2:15 PM 73.4 °F 48.2 °F 41% 30.13 in 10.0 mi SW 16.1 mph 20.7 mph N/A   Mostly Cloudy
2:35 PM 73.4 °F 48.2 °F 41% 30.13 in 10.0 mi SW 15.0 mph 21.9 mph N/A   Mostly Cloudy
2:55 PM 75.2 °F 44.6 °F 34% 30.12 in 10.0 mi SW 13.8 mph 19.6 mph N/A   Mostly Cloudy
3:15 PM 77.0 °F 37.4 °F 24% 30.11 in 10.0 mi SW 16.1 mph - N/A   Scattered Clouds
3:35 PM 75.2 °F 42.8 °F 31% 30.10 in 10.0 mi SSW 11.5 mph 16.1 mph N/A   Mostly Cloudy
3:55 PM 77.0 °F 42.8 °F 29% 30.08 in 10.0 mi SW 6.9 mph - N/A   Overcast
4:15 PM 73.4 °F 44.6 °F 36% 30.07 in 10.0 mi Calm Calm - N/A   Overcast
4:35 PM 77.0 °F 44.6 °F 32% 30.07 in 10.0 mi SSW 9.2 mph - N/A Thunderstorm Thunderstorm
4:55 PM 77.0 °F 41.0 °F 28% 30.07 in 10.0 mi SW 8.1 mph - N/A   Mostly Cloudy
5:15 PM 78.8 °F 37.4 °F 23% 30.06 in 10.0 mi SW 19.6 mph 25.3 mph N/A Thunderstorm Scattered Clouds
5:35 PM 75.2 °F 37.4 °F 25% 30.05 in 10.0 mi SSW 12.7 mph - N/A   Clear
5:55 PM 73.4 °F 37.4 °F 27% 30.05 in 10.0 mi SSW 8.1 mph - N/A   Clear
6:15 PM 73.4 °F 41.0 °F 31% 30.04 in 10.0 mi Calm Calm - N/A   Clear
6:35 PM 71.6 °F 41.0 °F 33% 30.03 in 10.0 mi South 6.9 mph - N/A   Clear
6:55 PM 71.6 °F 42.8 °F 35% 30.02 in 10.0 mi South 6.9 mph - N/A   Clear
7:15 PM 68.0 °F 44.6 °F 43% 30.02 in 10.0 mi South 4.6 mph - N/A   Clear
7:35 PM 68.0 °F 44.6 °F 43% 30.01 in 10.0 mi Calm Calm - N/A Thunderstorm Clear
7:55 PM 66.2 °F 44.6 °F 46% 30.01 in 10.0 mi SE 8.1 mph - N/A   Clear
8:35 PM 64.4 °F 50.0 °F 59% 30.05 in 10.0 mi South 11.5 mph - N/A   Mostly Cloudy
8:55 PM 64.4 °F 48.2 °F 56% 30.06 in 10.0 mi SSE 10.4 mph - N/A   Scattered Clouds
9:15 PM 62.6 °F 44.6 °F 52% 30.05 in 10.0 mi South 3.5 mph 16.1 mph N/A Thunderstorm Thunderstorm
9:35 PM 62.6 °F 42.8 °F 48% 30.06 in 10.0 mi South 10.4 mph - N/A   Clear
9:55 PM 59.0 °F 44.6 °F 59% 30.06 in 10.0 mi South 9.2 mph - N/A   Clear
10:15 PM 59.0 °F 46.4 °F 63% 30.07 in 10.0 mi SSE 9.2 mph - N/A Thunderstorm Clear
10:35 PM 59.0 °F 46.4 °F 63% 30.07 in 10.0 mi SE 10.4 mph - N/A   Clear
10:55 PM 59.0 °F 50.0 °F 72% 30.08 in 10.0 mi ESE 16.1 mph - N/A   Clear
11:15 PM 59.0 °F 51.8 °F 77% 30.09 in 10.0 mi SE 18.4 mph - N/A   Clear
11:35 PM 59.0 °F 53.6 °F 82% 30.09 in 10.0 mi SSE 16.1 mph - N/A   Clear
11:55 PM 59.0 °F 51.8 °F 77% 30.09 in 10.0 mi SSE 15.0 mph 20.7 mph N/A   Clear